Weather History for Joplin, MO

Change the Weather History Date:

Wednesday, December 12, 2012

  Actual Average Record
Temperature  
Mean Temperature 39 °F 38 °F  
Max Temperature 51 °F 48 °F 66 °F (1948)
Min Temperature 26 °F 28 °F 1 °F (1962)
Degree Days  
Heating Degree Days 26 27  
Month to date heating degree days 213 307  
Since 1 July heating degree days 999 1064  
Cooling Degree Days 0 0  
Month to date cooling degree days 0 0  
Year to date cooling degree days 2106 1698  
Moisture  
Dew Point 13 °F    
Average Humidity 39    
Maximum Humidity 58    
Minimum Humidity 19    
Precipitation  
Precipitation 0.00 in 0.09 in 1.22 in (1991)
Month to date precipitation 0.78 1.21  
Year to date precipitation 37.74 44.94  
Snow  
Snow 0.00 in - - ()
Month to date snowfall T  
Snow Depth 0.00 in    
Sea Level Pressure  
Sea Level Pressure 30.23 in    
Wind  
Wind Speed 10 mph (South)    
Max Wind Speed 21 mph    
Max Gust Speed 24 mph    
Visibility 10 miles    
Events      
T = Trace of Precipitation, MM = Missing Value Source: NWS Daily Summary

Daily Weather History Graph

Daily Weather History Graph

Search for Another Location

Airport:

Trip Planner

Search our weather history database for the weather conditions in past years. The results will help you decide how hot, cold, wet, or windy it might be!

Date:

Astronomy

Dec. 12, 2012 Rise Set
Actual Time 7:22 AM CST 5:01 PM CST
Civil Twilight 6:53 AM CST 5:30 PM CST
Nautical Twilight 6:21 AM CST 6:02 PM CST
Astronomical Twilight 5:49 AM CST 6:34 PM CST
Moon 6:28 AM CST (12/12) 4:38 PM CST (12/12)
Length of Visible Light 10h 36m
Length of Day
9h 38m
Waning Crescent, 1% of the Moon is Illuminated
Dec 12
Waning Crescent
Dec 13
New
Dec 19
First Quarter
Dec 28
Full
Jan 4
Last Quarter

Hourly Weather History & Observations

Time (CST) Temp. Windchill Dew Point Humidity Pressure Visibility Wind Dir Wind Speed Gust Speed Precip Events Conditions
12:53 AM 28.9 °F 21.1 °F 15.1 °F 56% 30.22 in 10.0 mi South 8.1 mph - N/A   Clear
1:53 AM 28.0 °F 20.0 °F 15.1 °F 58% 30.22 in 10.0 mi South 8.1 mph - N/A   Clear
2:53 AM 28.0 °F 20.8 °F 14.0 °F 56% 30.22 in 10.0 mi South 6.9 mph - N/A   Clear
3:53 AM 28.0 °F 20.8 °F 14.0 °F 56% 30.22 in 10.0 mi South 6.9 mph - N/A   Clear
4:53 AM 28.0 °F 21.7 °F 12.9 °F 53% 30.23 in 10.0 mi South 5.8 mph - N/A   Clear
5:53 AM 28.4 °F 22.2 °F 12.2 °F 51% 30.22 in 10.0 mi South 5.8 mph - N/A   Clear
6:53 AM 27.0 °F 20.5 °F 14.0 °F 58% 30.27 in 10.0 mi South 5.8 mph - N/A   Clear
7:53 AM 30.0 °F 22.4 °F 15.1 °F 54% 30.28 in 10.0 mi South 8.1 mph - N/A   Clear
8:53 AM 36.0 °F 28.0 °F 15.1 °F 43% 30.28 in 10.0 mi South 11.5 mph - N/A   Clear
9:53 AM 41.0 °F 32.8 °F 15.1 °F 35% 30.30 in 10.0 mi SSW 16.1 mph - N/A   Clear
10:53 AM 45.0 °F 38.5 °F 14.0 °F 29% 30.30 in 10.0 mi SW 13.8 mph 20.7 mph N/A   Clear
11:53 AM 46.9 °F - 12.0 °F 24% 30.28 in 10.0 mi SSW 13.8 mph 21.9 mph N/A   Clear
12:53 PM 48.9 °F - 10.0 °F 21% 30.25 in 10.0 mi SSW 15.0 mph 24.2 mph N/A   Clear
1:53 PM 50.0 °F - 9.0 °F 19% 30.22 in 10.0 mi South 13.8 mph 23.0 mph N/A   Clear
2:53 PM 51.1 °F - 10.0 °F 19% 30.22 in 10.0 mi SSW 11.5 mph - N/A   Clear
3:53 PM 48.9 °F - 10.9 °F 22% 30.22 in 10.0 mi South 15.0 mph - N/A   Clear
4:53 PM 44.1 °F 38.6 °F 14.0 °F 30% 30.21 in 10.0 mi South 10.4 mph - N/A   Clear
5:53 PM 41.0 °F 35.2 °F 12.2 °F 31% 30.18 in 10.0 mi South 9.2 mph - N/A   Clear
6:53 PM 39.0 °F 33.4 °F 12.9 °F 34% 30.21 in 10.0 mi South 8.1 mph - N/A   Clear
7:53 PM 39.0 °F 32.3 °F 12.9 °F 34% 30.21 in 10.0 mi South 10.4 mph - N/A   Clear
8:53 PM 39.9 °F 33.4 °F 14.0 °F 35% 30.19 in 10.0 mi SSE 10.4 mph - N/A   Clear
9:53 PM 39.0 °F 31.4 °F 15.1 °F 38% 30.20 in 10.0 mi South 12.7 mph - N/A   Clear
10:53 PM 39.0 °F 31.4 °F 16.0 °F 39% 30.22 in 10.0 mi South 12.7 mph - N/A   Clear
11:53 PM 37.9 °F 30.9 °F 17.1 °F 43% 30.23 in 10.0 mi South 10.4 mph - N/A   Clear